050101 J76  0.6+  0.1-    050404 084  0.1+  0.1-    060604 939  1.1-  0.1-  

050101 J76  0.5+  0.1+    050404 084  0.2+  0.1+    060604 939  0.9-  0.1+  

050101 J76  0.5+  0.0     050405 372  0.2-  0.3+    060604 939  0.6-  0.5+  

050102 415  1.4+  0.1+    050405 360 (1.5+  4.1-)   060604 J97  0.8-  0.1-  

050102 442  1.0-  0.8-    050405 360 (1.6+  4.1-)   060604 J64  0.2-  0.7-  

050102 442  0.2-  0.4-    050405 619  0.5+  0.9-    060604 J64  0.3-  1.2-  

050102 442  1.1-  0.3+    050405 619  0.6+  1.0-    060604 J64  0.6-  0.0   

050102 442  1.0-  0.2+    050405 619  0.6+  1.0-    060605 A32  0.2-  0.5-  

050102 442  1.0-  0.9-    050406 084  0.3+  0.2+    060605 A32  0.2-  0.5-  

050102 442  0.5-  0.2-    050407 084  0.3+  0.1-    060605 A32  0.0   0.7-  

050102 557  0.2+  0.1-    050407 379  0.6+  0.7+    060608 I77  0.6-  0.4-  

050102 557  0.3+  0.3-    050407 379  0.9+  0.9+    060608 I77  0.8-  0.6-  

050102 557  0.3+  0.2-    050407 379  0.5+  0.1+    060608 I77  0.2+  0.7-  

050102 557  0.3+  0.1-    050407 379  0.6+  0.3+    060608 118  0.3-  1.1-  

050102 557  0.1+  0.3-    050409 379  0.2+  0.6+    060608 118  0.0   0.8-  

050102 557  0.1+  0.4-    050409 379  0.3+  0.1+    060610 213  0.4-  0.8-  

050102 557  0.1+  0.3-    050409 379  0.2+  0.7+    060611 213  0.2-  0.6-  

050102 557  0.2+  0.2-    050409 379  0.1+  0.3+    060611 213  0.2-  0.6-  

050102 726  0.6-  0.2-    050409 D88  1.0+  0.7+    060611 J97  0.6-  0.6-  

050102 726  0.6-  0.5-    050409 D88  0.5+  0.8-    060611 A32  0.4-  0.5+  

050102 726  0.3+  0.5-    050409 D88  0.2+  0.5+    060611 A32  0.1-  0.5+  

050102 726  0.2-  0.4-    050409 D83  0.4+  0.0     060611 J55  0.2+  0.9-  

050102 726  0.9-  0.3-    050409 D83  0.4+  0.3-    060611 J55  0.9-  0.3+  

050102 726  0.8-  0.4-    050409 D83  0.4+  0.0     060611 J55  0.6-  0.5-  

050102 726  1.0-  0.4-    050409 D83  0.4+  0.2-    060612 644  0.2-  0.1-  

050102 I77  0.1+  0.3-    050409 J78  0.5+  0.2+    060612 644  0.1-  0.2-  

050103 I77  0.3+  0.5-    050409 J78  0.5+  0.1+    060612 644  0.0   0.4-  

050103 I77  0.2-  0.1-    050409 J78  0.5+  0.1+    060612 A32  1.3+  0.3+  

050103 I77  0.5+  0.2-    050410 945  0.6+  0.3-    060612 A32  0.2+  0.3-  

050103 084  0.1+  0.1-    050410 945  0.7+  0.3-    060612 A32  0.3-  0.2-  

050103 084  0.0   0.1-    050410 945  0.6+  0.3-    060617 699  1.1-  1.1+  

050103 442 (0.1-  2.3-)   050410 945  0.6+  0.3-    060617 699  0.8-  1.4+  

050103 J98 (4.1- 11.2+)   050410 213  0.3+  0.4+    060617 699  1.3-  0.6+  

050103 160  0.4+  0.4-    050410 213  0.4+  0.3+    060619 691  0.7-  0.2+  

050103 J98 (2.1-  8.5+)   050410 213  0.2+  0.3+    060619 691  1.6-  0.7-  

050103 160  0.5+  0.4-    050410 J70  0.5-  1.1+    060619 691 (2.5-  1.2+) 

050103 160  0.4+  0.3-    050410 J70  0.3+  0.6+    060621 J67  0.8-  0.4-  

050103 160  0.2+  0.4-    050410 J70  0.3+  0.2-    060621 J67  0.7-  0.8-  

050103 160  0.4+  0.3-    050410 J70  0.1+  0.3+    060621 J67  1.2-  0.0   

050103 104 (0.5-  2.0+)   050411 049  0.6+  0.5+    060621 J64  1.3-  0.9+  

050103 104  0.3-  1.8+    050411 049  1.1+  1.8-    060622 J64  0.3+  0.7+  

050103 104  0.2+  1.1-    050411 049  0.5+  0.4+    060622 J64  0.7+  0.1+  

050104 834  0.7+  0.7+    050412 J70  0.4+  0.1-    060622 H45  0.1+  0.8+  

050104 834  0.8+  0.6+    050412 J70  0.2-  0.4+    060622 H45  0.8+  1.0+  

050104 372  0.3-  1.8+    050412 J70  0.1+  0.3+    060622 H45  0.8+  1.0+  

050104 213  0.7+  0.3+    050412 J70  0.4+  0.3+    060622 H45  1.4+  1.6+  

050104 213  0.5+  0.5+    050412 J70  0.0   0.1+    060622 J67  0.8-  0.5-  

050104 213  0.9+  0.1+    050412 J70  0.7+  0.3+    060622 J67  1.2-  0.8-  

050104 442  1.1-  1.4-    050412 J70  0.5+  0.5+    060622 J67  1.0-  0.5-  

050104 442 (3.3-  1.5-)   050412 J70  0.1+  0.4+    060623 644  0.2+  0.4-  

050104 442 (3.4-  0.8-)   050412 J70  0.3-  0.6+    060623 644  0.1-  0.7-  

050104 442 (2.5-  0.9-)   050412 J70  0.2-  1.0+    060623 644  0.2-  0.3-  

050104 442 (2.8-  0.3-)   050412 J70  0.1+  0.5+    060625 J97  1.2-  0.1+  

050104 619  0.1+  1.2+    050412 J70  0.0   0.9-    060628 J67  0.1-  0.3-  

050104 619  0.1+  1.2+    050412 J70  0.8-  0.0     060628 J67  0.4+  0.7+  

050104 619  0.2+  1.2+    050412 J70  0.6+  1.4-    060628 J67  0.6-  1.6-  

050104 215  0.7+  0.0     050412 J70  0.3-  0.3+    060629 699  0.8-  0.5+  

050104 215  0.5+  0.1+    050412 J70  0.4-  0.7+    060629 699  1.6-  0.5+  

050104 215  0.8+  0.4-    050413 372  0.1-  0.0     060629 699  1.0-  0.1+  

050104 215  0.8+  0.3-    050413 071  0.0   0.1-    060629 699  0.5-  0.1+  

050104 215  0.7+  0.1+    050413 071  0.1+  0.2-    060630 850  0.3-  0.2-  

050104 240  1.7-  0.1-    050413 071  1.0+  0.8+    060630 850  0.3-  0.2+  

050104 240  1.6-  0.0     050413 071  0.3-  0.3+    060630 850  0.1-  0.2+  

050104 240  1.7-  0.1-    050413 071  0.2-  0.3+    060630 850  0.4-  0.1+  

050104 240  1.7-  0.1+    050413 071  0.0   0.3+    060630 850  0.1-  0.3+  

050104 240  1.7-  0.0     050413 071  0.2+  0.3+    060630 850  0.2-  0.5+  

050104 240  1.7-  0.2-    050413 071  1.0+  0.2+    060630 215  1.0-  0.3-  

050104 240  1.7-  0.2-    050414 049  1.8+  1.1-    060630 215  1.1-  0.2-  

050104 240  1.6-  0.2-    050414 049  0.8+  0.0     060630 215  0.7-  0.5-  

050104 240  1.6-  0.1-    050414 049  1.7+  0.5+    060701 213  0.5-  1.3-  

050104 240  1.6-  0.2-    050414 372  0.5-  0.1+    060701 213  0.9-  1.4-  

050104 240  1.7-  0.2-    050414 084  0.2+  0.1+    060701 213  0.6-  0.7-  

050105 213  0.7+  0.0     050414 084  0.2+  0.2+    060712 J97  0.9-  0.2+  

050105 213  0.8+  0.3+    050415 084  0.1-  0.1+                            



NAKANO

         **** Don't distribute anyone except personal use only ****

                (C) Copyright 2006 OAA/ComputingSection

write mail from CFAD0::NAKANO on 2006-07-20 23:22:32(JST).

 

    C/2004 Q2 (Machholz)

Epoch 2005 Jan. 30.0 TT = JDT 2453400.5  

T 2005 Jan. 24.91126 TT                                 Nakano

q   1.2050451            (2000.0)            P               Q

z  +0.0004453      Peri.   19.50429     -0.32003163     -0.71420589

 +/-0.0000007      Node    93.62407     +0.76513218     -0.58231284

e   0.9994634      Incl.   38.58933     +0.55870609     +0.38835771

From 3132 observations 2004 Aug. 27-2005 Oct. 8, mean residual 0".54.

   Nongravitational parameters A1 = +1.23 +/- 0.01, A2 = +0.0704 +/- 0.0087.

   (1/a)org.= +0.000407, (1/a)fut.= +0.001853 (+/-0.000001), Q= 8.

See residuals on http://www.oaa.gr.jp/~oaacs/nk/nk1237.htm



NAKANO

         **** Don't distribute anyone except personal use only ****

                (C) Copyright 2005 OAA/ComputingSection

write mail from CFAD0::NAKANO on 2005-11-03 23:34:28(JST).

 



    C/2004 Q2 (Machholz)                                                  

Epoch 2005 Jan. 30.0 TT = JDT 2453400.5  

T 2005 Jan. 24.91135 TT                                 Nakano

q   1.2050455            (2000.0)            P               Q

z  +0.0004435      Peri.   19.50438     -0.32003242     -0.71420530

 +/-0.0000013      Node    93.62406     +0.76513133     -0.58231393

e   0.9994655      Incl.   38.58935     +0.55870681     +0.38835715

From 2433 observations 2004 Aug. 27-2005 May 31, mean residual 0".53.

   Nongravitational parameters A1 = +1.09 +/- 0.01, A2 = +0.1176 +/- 0.0094.

   (1/a)org.= +0.000410, (1/a)fut.= +0.001851 (+/-0.000001), Q= 7.



NAKANO

         **** Don't distribute anyone except personal use only ****

                (C) Copyright 2005 OAA/ComputingSection

write mail from CFAD0::NAKANO on 2005-06-05 05:59:11(JST).

 





◎C/2004 Q2の軌道と予報位置です



  まだ,明るく観測されているこの彗星ですが,彗星の動きに非重力効果が

見られるようになりました.



    C/2004 Q2 (Machholz)                                                  

Epoch 2005 Jan. 30.0 TT = JDT 2453400.5  

T 2005 Jan. 24.91135 TT                                 Nakano

q   1.2050458            (2000.0)            P               Q

z  +0.0004420      Peri.   19.50438     -0.32003225     -0.71420521

 +/-0.0000015      Node    93.62405     +0.76513135     -0.58231390

e   0.9994674      Incl.   38.58936     +0.55870688     +0.38835735

From 2282 observations 2004 Aug. 27-2005 May 21, mean residual 0".52.

   Nongravitational parameters A1 = +1.06 +/- 0.01, A2 = +0.1413 +/- 0.0094.

   (1/a)org.= +0.000411, (1/a)fut.= +0.001849 (+/-0.000001), Q= 7.

 

Date/        TT  R.A.(2000) Decl.     Delta   r     Daily motion  Mag.  Moon Age

              h    h  m       。  ,                      ,  / PA 。  m1      。

2005 May  25 12  12 37.51  +48 37.2   1.783  2.140    31.0 / 161   9.7  103  .96

          26 12  12 38.54  +48 07.9   1.799  2.151    30.9 / 160   9.8  112  .90

          27 12  12 39.57  +47 38.8   1.815  2.162    30.7 / 160   9.8  122  .82

          28 12  12 40.60  +47 09.9   1.831  2.173    30.6 / 160   9.9  129  .72

          29 12  12 41.63  +46 41.2   1.847  2.184    30.5 / 160   9.9  135  .61

          30 12  12 42.65  +46 12.6   1.863  2.195    30.4 / 159   9.9  138  .50

          31 12  12 43.68  +45 44.1   1.880  2.206    30.3 / 159  10.0  137  .39

     June  1 12  12 44.71  +45 15.8   1.896  2.217    30.1 / 159  10.0  133  .28

           2 12  12 45.73  +44 47.7   1.912  2.228    30.0 / 158  10.1  127  .19

           3 12  12 46.76  +44 19.8   1.929  2.239    29.9 / 158  10.1  120  .12

           4 12  12 47.79  +43 52.0   1.946  2.250    29.8 / 158  10.2  112  .06

           5 12  12 48.82  +43 24.4   1.963  2.261    29.7 / 158  10.2  103  .02

           6 12  12 49.85  +42 57.0   1.980  2.272    29.5 / 157  10.3   94  .00

           7 12  12 50.88  +42 29.7   1.997  2.283    29.4 / 157  10.3   85  .00

           8 12  12 51.91  +42 02.6   2.014  2.294    29.3 / 157  10.3   76  .03

           9 12  12 52.95  +41 35.7   2.031  2.305    29.2 / 156  10.4   68  .06

